• Em Portugal
  • Lista de países
  • Para 7 dias
  • Temperatura da água
  • Mapas de satélite
  • Mapa do tempo
  • Widgets de tempo
  • user-avatar
    Iniciar Sessão

    Previsão horária em Calai e Nau

    Hoje, 24 Janeiro, Quarta-feira

    Tempo Temperatura Precipitação Vento Pressão Humidade
    00:00 +9°C° 0 mm 2 m/s 677 mmHg 23%
    01:00 +8°C° 0 mm 2 m/s 677 mmHg 24%
    02:00 +8°C° 0 mm 2 m/s 677 mmHg 24%
    03:00 +8°C° 0 mm 2 m/s 677 mmHg 25%
    04:00 +7°C° 0 mm 2 m/s 677 mmHg 25%
    05:00 +7°C° 0 mm 2 m/s 677 mmHg 26%
    06:00 +7°C° 0 mm 2 m/s 677 mmHg 27%
    07:00 +7°C° 0 mm 1 m/s 677 mmHg 27%
    08:00 +10°C° 0 mm 1 m/s 678 mmHg 24%
    09:00 +12°C° 0 mm 1 m/s 679 mmHg 20%
    10:00 +15°C° 0 mm 1 m/s 680 mmHg 17%
    11:00 +15°C° 0 mm 2 m/s 680 mmHg 17%
    12:00 +16°C° 0 mm 2 m/s 680 mmHg 16%
    13:00 +17°C° 0 mm 3 m/s 680 mmHg 16%
    14:00 +17°C° 0 mm 3 m/s 680 mmHg 17%
    15:00 +17°C° 0 mm 3 m/s 680 mmHg 18%
    16:00 +16°C° 0 mm 3 m/s 680 mmHg 20%
    17:00 +14°C° 0 mm 2 m/s 680 mmHg 24%
    18:00 +12°C° 0 mm 2 m/s 680 mmHg 28%
    19:00 +10°C° 0 mm 1 m/s 680 mmHg 32%
    20:00 +10°C° 0 mm 1 m/s 680 mmHg 33%
    21:00 +8°C° 0 mm 0 m/s 680 mmHg 35%
    22:00 +8°C° 0 mm 0 m/s 681 mmHg 36%
    23:00 +7°C° 0 mm 0 m/s 681 mmHg 37%

    Amanhã, 25 Janeiro, Quinta-feira

    Tempo Temperatura Precipitação Vento Pressão Humidade
    00:00 +7°C° 0 mm 0 m/s 681 mmHg 38%
    01:00 +6°C° 0 mm 0 m/s 681 mmHg 39%
    02:00 +6°C° 0 mm 0 m/s 681 mmHg 40%
    03:00 +5°C° 0 mm 0 m/s 681 mmHg 41%
    04:00 +5°C° 0 mm 0 m/s 681 mmHg 43%
    05:00 +5°C° 0 mm 0 m/s 681 mmHg 43%
    06:00 +5°C° 0 mm 0 m/s 681 mmHg 44%
    07:00 +4°C° 0 mm 0 m/s 682 mmHg 45%
    08:00 +6°C° 0 mm 0 m/s 682 mmHg 39%
    09:00 +9°C° 0 mm 0 m/s 683 mmHg 32%
    10:00 +11°C° 0 mm 0 m/s 684 mmHg 26%
    11:00 +13°C° 0 mm 1 m/s 683 mmHg 25%
    12:00 +13°C° 0 mm 1 m/s 683 mmHg 23%
    13:00 +14°C° 0 mm 2 m/s 683 mmHg 21%
    14:00 +14°C° 0 mm 2 m/s 683 mmHg 22%
    15:00 +14°C° 0 mm 2 m/s 682 mmHg 23%
    16:00 +13°C° 0 mm 3 m/s 682 mmHg 24%
    17:00 +12°C° 0 mm 2 m/s 682 mmHg 28%
    18:00 +10°C° 0 mm 2 m/s 682 mmHg 32%
    19:00 +9°C° 0 mm 1 m/s 682 mmHg 36%
    20:00 +9°C° 0 mm 1 m/s 682 mmHg 38%
    21:00 +8°C° 0 mm 1 m/s 682 mmHg 40%
    22:00 +7°C° 0 mm 1 m/s 682 mmHg 41%
    23:00 +7°C° 0 mm 1 m/s 682 mmHg 42%

    Depois de amanhã, 26 Janeiro, Sexta-feira

    Tempo Temperatura Precipitação Vento Pressão Humidade
    00:00 +6°C° 0 mm 1 m/s 682 mmHg 43%
    01:00 +6°C° 0 mm 1 m/s 682 mmHg 44%
    02:00 +6°C° 0 mm 1 m/s 682 mmHg 44%
    03:00 +5°C° 0 mm 1 m/s 682 mmHg 45%
    04:00 +4°C° 0 mm 0 m/s 681 mmHg 45%
    05:00 +4°C° 0 mm 0 m/s 682 mmHg 46%
    06:00 +4°C° 0 mm 1 m/s 682 mmHg 46%
    07:00 +4°C° 0 mm 1 m/s 682 mmHg 46%
    08:00 +6°C° 0 mm 1 m/s 682 mmHg 40%
    09:00 +8°C° 0 mm 1 m/s 683 mmHg 34%
    10:00 +11°C° 0 mm 1 m/s 683 mmHg 27%
    11:00 +11°C° 0 mm 1 m/s 683 mmHg 25%
    12:00 +12°C° 0 mm 1 m/s 682 mmHg 24%
    13:00 +13°C° 0 mm 2 m/s 682 mmHg 22%
    14:00 +13°C° 0 mm 2 m/s 682 mmHg 22%
    15:00 +13°C° 0 mm 2 m/s 681 mmHg 23%
    16:00 +13°C° 0 mm 2 m/s 681 mmHg 24%
    17:00 +12°C° 0 mm 2 m/s 681 mmHg 28%
    18:00 +9°C° 0 mm 2 m/s 681 mmHg 32%
    19:00 +9°C° 0 mm 1 m/s 681 mmHg 36%
    20:00 +8°C° 0 mm 1 m/s 681 mmHg 38%
    21:00 +8°C° 0 mm 1 m/s 681 mmHg 40%
    22:00 +7°C° 0 mm 1 m/s 681 mmHg 41%
    23:00 +7°C° 0 mm 1 m/s 681 mmHg 42%

    27 Janeiro, Sábado

    Tempo Temperatura Precipitação Vento Pressão Humidade
    00:00 +6°C° 0 mm 1 m/s 681 mmHg 43%
    01:00 +6°C° 0 mm 1 m/s 680 mmHg 44%
    02:00 +4°C° 0 mm 0 m/s 680 mmHg 45%
    03:00 +4°C° 0 mm 0 m/s 680 mmHg 45%
    04:00 +4°C° 0 mm 0 m/s 680 mmHg 46%
    05:00 +4°C° 0 mm 0 m/s 680 mmHg 46%
    06:00 +3°C° 0 mm 0 m/s 680 mmHg 46%
    07:00 +3°C° 0 mm 0 m/s 680 mmHg 47%
    08:00 +6°C° 0 mm 1 m/s 681 mmHg 42%
    09:00 +8°C° 0 mm 1 m/s 681 mmHg 37%
    10:00 +9°C° 0 mm 1 m/s 682 mmHg 32%
    11:00 +9°C° 0 mm 2 m/s 681 mmHg 31%
    12:00 +10°C° 0 mm 2 m/s 681 mmHg 30%
    13:00 +12°C° 0 mm 2 m/s 680 mmHg 29%
    14:00 +11°C° 0 mm 3 m/s 680 mmHg 30%
    15:00 +11°C° 0 mm 3 m/s 680 mmHg 31%
    16:00 +10°C° 0 mm 3 m/s 680 mmHg 32%
    17:00 +9°C° 0 mm 3 m/s 680 mmHg 35%
    18:00 +8°C° 0 mm 3 m/s 681 mmHg 38%
    19:00 +5°C° 0 mm 3 m/s 681 mmHg 41%
    20:00 +5°C° 0 mm 3 m/s 681 mmHg 41%
    21:00 +5°C° 0 mm 2 m/s 681 mmHg 40%
    22:00 +4°C° 0 mm 2 m/s 681 mmHg 40%
    23:00 +4°C° 0 mm 2 m/s 681 mmHg 39%

    28 Janeiro, Domingo

    Tempo Temperatura Precipitação Vento Pressão Humidade
    00:00 +4°C° 0 mm 2 m/s 680 mmHg 37%
    01:00 +3°C° 0 mm 2 m/s 680 mmHg 36%
    02:00 +2°C° 0 mm 2 m/s 680 mmHg 35%
    03:00 +2°C° 0 mm 2 m/s 680 mmHg 34%
    04:00 0°C° 0 mm 3 m/s 679 mmHg 33%
    05:00 0°C° 0 mm 3 m/s 679 mmHg 32%
    06:00 -1°C° 0 mm 3 m/s 680 mmHg 31%
    07:00 -1°C° 0 mm 3 m/s 680 mmHg 30%
    08:00 -1°C° 0 mm 3 m/s 680 mmHg 28%
    09:00 0°C° 0 mm 3 m/s 680 mmHg 26%
    10:00 0°C° 0 mm 3 m/s 680 mmHg 23%
    11:00 0°C° 0 mm 3 m/s 680 mmHg 24%
    12:00 0°C° 0 mm 3 m/s 679 mmHg 24%
    13:00 -1°C° 0 mm 4 m/s 679 mmHg 24%
    14:00 -2°C° 0,2 mm 4 m/s 679 mmHg 29%
    15:00 -2°C° 0,2 mm 4 m/s 679 mmHg 33%
    16:00 -3°C° 0,2 mm 4 m/s 679 mmHg 38%
    17:00 -5°C° 0,3 mm 4 m/s 679 mmHg 50%
    18:00 -7°C° 0,3 mm 4 m/s 680 mmHg 62%
    19:00 -7°C° 0,3 mm 3 m/s 680 mmHg 74%
    20:00 -8°C° 0,9 mm 3 m/s 680 mmHg 78%
    21:00 -9°C° 0,9 mm 3 m/s 680 mmHg 83%
    22:00 -9°C° 0,9 mm 3 m/s 679 mmHg 87%
    23:00 -10°C° 0,6 mm 3 m/s 679 mmHg 88%

    29 Janeiro, Segunda-feira

    Tempo Temperatura Precipitação Vento Pressão Humidade
    00:00 -10°C° 0,6 mm 3 m/s 679 mmHg 88%
    01:00 -10°C° 0,6 mm 3 m/s 679 mmHg 89%
    02:00 -10°C° 0,5 mm 3 m/s 679 mmHg 89%
    03:00 -12°C° 0,5 mm 3 m/s 679 mmHg 89%
    04:00 -12°C° 0,5 mm 3 m/s 679 mmHg 89%
    05:00 -12°C° 0,3 mm 3 m/s 679 mmHg 88%
    06:00 -12°C° 0,3 mm 3 m/s 680 mmHg 88%
    07:00 -13°C° 0,3 mm 3 m/s 680 mmHg 88%
    08:00 -12°C° 0,1 mm 3 m/s 681 mmHg 85%
    09:00 -12°C° 0,1 mm 3 m/s 681 mmHg 82%
    10:00 -12°C° 0,1 mm 3 m/s 681 mmHg 80%
    11:00 -10°C° 0 mm 3 m/s 681 mmHg 77%
    12:00 -9°C° 0 mm 3 m/s 681 mmHg 74%
    13:00 -8°C° 0 mm 2 m/s 680 mmHg 71%
    14:00 -8°C° 0 mm 2 m/s 681 mmHg 71%
    15:00 -8°C° 0 mm 2 m/s 681 mmHg 71%
    16:00 -7°C° 0 mm 1 m/s 681 mmHg 71%
    17:00 -9°C° 0 mm 2 m/s 681 mmHg 74%
    18:00 -10°C° 0 mm 2 m/s 682 mmHg 77%
    19:00 -12°C° 0 mm 2 m/s 682 mmHg 80%
    20:00 -12°C° 0 mm 2 m/s 682 mmHg 77%
    21:00 -12°C° 0 mm 2 m/s 682 mmHg 74%
    22:00 -10°C° 0 mm 1 m/s 682 mmHg 72%
    23:00 -9°C° 0 mm 1 m/s 682 mmHg 70%
    Mostrar mais